GFSFLT1_700_spd_000.txt.gz
Wind_Speed
18 17 12 12 13 13 16 19 21 25 23 24 21 20 22 25 27 27 33 36 35 33 41 49 49 45 44 42 40 37 39 41
18 17 16 14 17 17 18 19 26 24 22 16 18 23 25 26 32 34 32 34 37 45 45 50 46 49 48 42 40 40 39 39
21 19 18 15 19 23 23 18 17 16 15 18 24 26 29 31 33 36 41 40 44 42 46 48 48 44 41 40 42 43 42 42
16 17 18 15 10 9 9 10 12 17 22 24 27 27 30 36 37 35 36 41 45 48 49 45 41 40 42 42 42 44 46 45
13 15 14 5 6 10 12 13 17 21 23 25 29 32 35 35 36 38 39 43 47 47 43 40 40 42 45 46 46 45 46 47
10 14 16 16 18 19 18 21 25 24 24 27 27 27 28 32 37 39 45 47 48 46 41 40 43 43 43 43 45 45 47 47
8 8 6 10 16 18 17 15 20 21 26 31 34 37 41 43 46 48 46 48 49 54 47 43 43 45 46 46 46 48 50 49
11 12 16 19 23 20 25 27 29 32 38 41 42 45 49 50 49 46 41 46 44 52 42 45 47 48 49 49 50 51 48 46
9 15 18 21 23 27 27 27 28 34 40 43 46 48 43 45 50 56 44 49 49 46 46 52 53 50 51 50 48 48 46 44
13 15 19 24 24 28 27 28 32 37 41 44 45 41 41 46 49 55 56 54 41 43 46 47 47 41 41 43 44 45 44 40
15 20 25 26 24 20 26 36 44 43 47 48 46 43 43 46 46 46 42 41 47 48 46 43 37 41 44 44 45 41 33 31
18 22 24 24 24 31 37 45 43 46 50 45 40 40 42 45 45 43 42 48 45 50 48 55 42 43 40 41 38 36 29 27
22 25 30 32 36 41 45 41 44 49 44 41 40 41 43 44 45 45 45 47 48 52 52 34 36 37 36 34 28 29 30 32
26 27 31 38 43 44 44 46 46 40 39 38 38 41 42 44 48 50 48 43 44 45 34 30 33 36 36 24 26 31 32 35
26 31 41 47 48 45 46 45 40 39 37 37 41 43 43 42 42 40 38 37 48 28 24 30 32 34 30 29 31 34 36 40
31 40 44 45 45 46 43 40 40 39 38 41 43 43 43 39 37 40 44 43 41 38 27 32 32 33 30 33 35 37 41 46
40 41 43 46 45 43 41 40 40 40 41 42 41 43 43 40 39 40 39 32 30 23 29 32 33 31 33 34 35 40 45 45
41 43 44 43 40 41 40 40 40 42 43 43 42 43 40 37 34 32 24 21 19 24 29 30 33 33 34 34 39 43 45 44
43 41 39 40 40 39 43 42 43 43 44 45 42 41 37 35 30 24 20 18 22 24 27 34 34 33 33 37 41 44 44 43

GFSFLT1_700_spd_003.txt.gz
Wind_Speed
16 13 12 12 9 17 21 22 26 22 24 24 17 17 17 19 25 29 33 32 35 37 38 40 44 49 52 53 53 49 46 46
18 17 14 14 15 19 20 21 24 26 22 21 17 18 21 26 30 31 31 33 35 40 41 46 50 51 54 53 47 43 43 46
18 16 14 14 15 18 19 22 23 17 19 19 21 22 27 29 29 31 34 36 39 42 43 45 51 51 50 46 44 45 46 49
11 10 12 14 16 17 17 16 15 16 19 20 23 24 25 28 29 31 34 38 42 45 47 51 50 48 46 45 45 48 50 50
7 12 15 16 13 12 15 14 14 17 18 17 20 21 24 27 30 35 40 43 45 48 51 49 50 43 44 47 46 47 48 49
6 11 13 16 15 18 17 17 18 17 21 24 27 30 36 38 41 44 46 50 53 50 46 48 44 43 42 43 46 49 49 50
12 8 9 5 12 14 14 19 24 28 30 32 36 40 44 48 51 54 53 54 47 47 42 52 57 49 43 44 46 47 47 48
19 15 11 13 17 18 20 27 29 33 35 41 44 48 49 51 54 52 47 46 47 55 53 54 51 51 48 49 49 43 40 40
20 17 13 15 18 22 25 32 34 33 37 43 47 47 49 49 46 49 51 51 50 52 46 44 49 41 41 45 38 38 42 41
21 17 16 19 22 26 30 34 35 38 42 48 47 47 48 47 49 52 52 50 45 43 39 46 43 43 48 47 41 38 40 42
21 20 22 23 26 29 29 35 42 44 44 43 44 46 46 48 50 49 49 48 44 46 45 42 45 49 45 35 34 38 40 37
23 23 24 26 25 27 35 42 40 40 42 46 46 45 45 46 48 50 50 50 48 50 45 43 43 46 36 32 35 36 33 29
25 26 25 27 28 33 44 40 39 42 44 43 43 43 45 46 48 47 47 47 43 36 34 37 37 31 28 33 34 29 30 32
26 26 29 33 35 39 39 38 39 40 42 42 43 46 48 46 44 43 43 41 40 37 43 40 32 25 32 31 31 32 31 32
26 27 31 34 40 40 38 38 40 42 41 42 44 47 47 47 46 45 41 38 36 33 25 21 21 26 30 32 31 31 31 36
26 28 36 37 37 37 37 40 41 41 41 42 45 46 46 47 45 42 38 35 33 24 23 19 24 28 32 32 32 32 35 41
36 38 39 38 38 37 39 41 41 41 42 43 45 46 46 46 44 39 36 31 25 17 19 22 28 29 34 34 34 35 39 42
36 38 39 39 38 40 41 40 41 43 44 46 47 48 48 46 41 35 31 25 19 18 22 25 26 31 37 36 36 39 41 43
39 39 40 37 40 40 41 43 46 46 48 49 49 48 45 41 36 33 28 24 16 22 23 26 30 35 38 37 37 39 40 42

GFSFLT1_700_spd_006.txt.gz
Wind_Speed
11 9 9 11 13 13 15 24 23 24 22 22 19 16 15 16 18 22 27 30 32 34 35 37 43 44 46 49 50 51 53 54
15 15 14 13 14 15 17 19 20 22 20 19 20 20 19 20 26 27 32 32 35 38 40 42 45 47 50 53 55 55 51 50
17 16 16 15 16 15 16 18 21 21 17 18 17 19 23 28 28 31 35 34 37 40 44 46 48 50 54 55 53 52 50 50
4 6 8 10 13 17 18 18 20 22 21 22 23 22 23 25 28 32 35 38 40 45 49 50 54 52 52 48 50 51 50 49
4 5 5 12 17 15 15 18 18 18 16 20 22 26 29 32 37 42 45 48 50 52 55 54 50 49 51 53 56 57 54 45
7 5 13 22 15 9 12 12 13 18 22 25 29 32 36 40 44 46 48 51 54 54 54 53 52 54 57 55 51 49 48 47
9 3 12 11 11 14 12 13 18 20 27 32 37 40 42 45 49 47 50 52 52 52 51 49 48 48 47 44 47 51 37 42
11 17 20 12 16 16 18 21 24 28 34 36 39 42 44 45 47 50 52 52 50 49 48 48 49 49 44 43 49 41 45 42
20 17 17 18 18 19 20 23 26 30 36 43 45 45 45 47 49 50 50 50 49 51 52 51 49 46 41 47 50 45 45 36
21 20 22 22 23 23 23 22 26 32 40 44 44 45 46 48 49 48 47 48 50 50 50 46 30 45 36 38 33 37 37 36
22 23 24 26 27 27 29 29 31 35 41 43 43 43 44 45 45 45 46 46 46 47 46 37 36 36 35 34 35 33 32 34
24 27 27 29 29 29 31 33 36 40 40 41 42 43 43 43 43 44 44 45 45 44 43 40 40 41 40 34 28 31 34 34
27 30 30 29 29 29 33 37 41 38 38 40 43 44 45 45 45 46 46 45 43 41 40 37 34 29 30 27 30 31 32 33
26 29 27 30 31 35 37 39 32 36 39 43 45 46 45 47 48 48 47 44 41 37 35 31 27 26 24 27 31 33 32 32
26 27 28 31 36 39 33 30 35 39 42 44 45 46 47 49 49 48 45 42 39 36 31 26 22 26 24 29 32 33 33 34
27 28 33 39 40 34 33 34 38 41 42 44 46 47 48 49 49 46 44 40 36 31 25 22 18 23 26 31 32 35 35 37
29 33 38 40 35 35 34 37 39 41 43 45 47 48 49 49 47 45 42 37 33 27 25 19 24 25 29 32 34 37 37 39
31 37 38 34 34 33 35 38 40 42 44 47 49 50 49 46 45 42 38 34 28 25 21 21 26 29 29 33 37 36 37 38
33 35 33 35 32 33 36 38 41 45 46 48 49 48 46 44 41 38 34 30 26 21 20 26 28 30 32 36 34 35 34 35

GFSFLT1_700_spd_009.txt.gz
Wind_Speed
8 9 8 8 8 11 14 16 20 21 23 18 13 11 12 13 14 18 24 31 33 35 35 36 37 39 43 46 48 51 53 53
12 12 12 13 14 14 14 17 17 18 20 19 18 19 19 19 21 23 25 28 29 31 34 37 39 42 45 46 49 50 49 49
14 13 14 16 12 12 13 15 16 15 16 19 18 19 19 21 24 27 30 33 37 39 42 44 46 49 50 50 49 49 51 53
6 3 2 1 6 10 9 9 11 13 16 16 18 21 23 25 28 31 35 39 42 43 45 48 49 51 52 53 53 53 54 55
5 3 3 4 11 15 17 12 12 12 11 13 16 20 25 30 33 37 40 41 42 44 46 48 49 50 51 50 50 50 49 48
7 5 5 14 22 19 10 16 11 12 14 19 23 26 31 36 38 40 42 44 45 45 46 46 46 46 46 46 45 44 42 42
9 5 10 16 14 12 18 17 16 18 19 24 28 31 37 39 40 42 43 44 45 46 46 46 45 44 44 43 41 38 43 45
9 7 14 10 12 16 18 19 20 22 23 27 31 34 38 41 43 43 44 44 43 44 45 45 45 44 44 42 40 42 45 40
10 12 12 14 16 20 21 23 26 27 28 30 34 40 43 42 43 43 43 43 43 44 44 45 46 45 42 32 44 39 37 38
13 15 15 19 20 22 26 29 31 31 32 37 40 42 39 41 41 40 41 42 43 43 44 44 43 41 38 35 34 40 31 30
17 18 20 24 25 27 31 35 31 36 38 40 38 37 38 39 40 41 41 42 43 44 43 40 38 36 32 32 28 29 29 29
21 22 25 28 30 33 38 39 30 37 39 38 35 37 39 42 42 42 43 44 44 42 41 37 33 31 30 28 28 29 28 30
26 28 30 32 33 37 41 35 39 41 36 34 37 40 42 43 43 44 45 44 43 42 38 34 31 27 24 24 28 29 29 32
29 30 31 31 35 37 38 38 41 31 32 36 40 42 43 44 46 47 47 45 43 40 36 33 28 24 22 23 27 29 32 34
31 30 31 32 34 37 34 41 30 32 35 37 40 43 44 46 48 48 46 44 43 38 33 28 23 23 22 23 29 31 34 36
30 29 28 32 35 37 37 36 32 32 34 38 41 44 45 47 47 46 45 42 40 35 29 24 24 21 22 27 30 33 35 37
29 27 31 30 36 35 34 34 31 33 35 38 42 45 47 47 46 44 43 40 37 33 28 24 21 24 26 28 32 35 37 36
26 26 28 32 33 33 33 30 31 33 36 40 43 46 47 46 44 43 41 38 34 31 27 24 23 24 29 30 33 35 33 34
21 26 29 32 33 34 29 29 31 35 38 41 44 47 46 44 43 43 39 35 32 29 26 24 24 25 26 29 30 30 32 32

GFSFLT1_700_spd_015.txt.gz
Wind_Speed
16 14 14 14 15 16 15 16 18 16 17 16 13 10 7 7 7 9 10 12 16 21 27 28 31 35 39 42 44 44 46 46
18 17 15 16 17 18 16 17 17 16 16 14 13 11 10 10 10 10 14 18 21 24 29 33 37 38 42 44 46 46 45 44
20 19 19 19 20 20 18 16 14 14 14 13 12 12 12 12 13 15 19 23 28 32 34 35 38 40 42 44 45 45 44 44
20 21 22 21 19 18 12 8 11 12 11 11 12 12 12 15 20 24 26 28 33 37 38 39 40 41 43 43 44 44 42 44
18 17 16 15 12 9 7 7 6 9 10 11 12 7 10 21 25 30 32 39 38 38 39 40 40 41 41 41 40 44 43 44
16 18 18 16 13 9 8 7 7 9 13 16 18 19 23 28 30 33 39 39 42 40 40 41 42 40 40 41 42 40 43 44
21 23 21 18 15 12 11 12 14 15 17 20 22 25 29 32 34 35 40 40 38 39 39 39 38 40 39 40 41 41 40 37
25 24 22 19 14 13 15 16 16 19 21 25 28 30 33 38 30 37 36 38 38 39 38 37 37 37 39 38 38 38 31 32
25 25 24 21 16 17 18 18 19 23 26 31 33 35 39 34 34 33 36 37 38 39 39 39 38 38 38 39 36 24 31 28
25 28 27 24 20 19 21 22 23 26 30 34 36 36 39 37 33 35 36 37 37 39 39 40 41 39 40 25 21 29 30 35
27 30 28 26 25 24 24 26 28 30 33 37 39 40 39 35 31 33 35 37 39 40 39 39 40 40 22 24 31 27 28 22
27 30 29 29 30 29 29 31 33 33 36 39 41 41 34 30 32 35 37 39 40 40 40 40 38 34 33 30 27 25 25 21
27 30 31 33 33 33 35 36 37 35 39 42 40 34 31 31 34 37 39 40 41 41 42 44 41 36 31 24 21 19 18 26
29 31 32 35 35 37 39 39 39 38 39 39 36 34 33 34 36 38 40 40 41 43 45 42 36 34 28 22 24 22 22 25
31 36 36 37 38 40 41 41 40 39 40 33 33 34 32 34 36 39 41 41 42 43 44 41 37 29 24 21 19 22 25 27
32 34 36 38 40 42 41 41 38 38 36 33 33 33 32 34 37 38 40 42 43 43 40 36 31 29 27 22 23 25 26 29
28 31 33 35 38 40 40 37 40 40 35 36 32 31 30 35 36 38 40 42 42 39 34 29 26 23 25 26 25 24 26 29
25 27 29 33 37 37 37 38 41 41 41 35 29 29 32 34 36 37 40 40 39 36 30 27 21 26 23 26 25 25 27 29
22 26 30 33 35 38 37 40 43 44 39 32 27 29 32 34 36 38 39 37 36 33 31 29 24 28 24 25 25 26 28 29

GFSFLT1_700_spd_021.txt.gz
Wind_Speed
5 7 6 4 2 6 6 6 5 10 11 12 16 14 12 14 12 9 10 13 16 14 16 20 25 27 29 33 35 34 34 33
10 12 12 12 10 8 8 8 10 13 13 16 17 16 16 13 11 12 11 12 16 19 18 22 26 28 32 33 32 33 33 33
12 13 17 17 14 10 11 13 14 17 19 18 17 18 14 13 15 14 15 16 19 22 25 30 30 31 31 30 32 34 34 35
12 13 20 21 21 17 17 20 21 21 21 18 18 14 15 15 16 17 18 24 25 29 36 33 33 32 30 30 31 33 35 35
22 21 21 26 26 19 24 24 26 23 19 18 17 16 18 18 20 21 21 25 29 35 41 36 38 34 32 33 32 33 35 36
29 32 30 26 31 27 25 27 23 20 19 18 15 18 19 20 24 26 29 31 33 39 42 37 33 32 33 34 33 33 35 37
31 34 37 33 24 22 22 21 20 19 18 16 16 18 18 21 25 28 29 31 39 40 37 35 35 34 33 32 34 36 37 39
37 41 34 27 26 23 22 20 19 18 17 19 20 21 22 25 27 28 29 36 39 36 35 35 35 34 33 33 35 37 37 38
40 39 37 30 23 23 23 23 21 19 20 22 23 26 28 29 30 30 33 37 37 35 36 35 35 36 36 34 35 37 36 36
28 30 26 21 20 24 27 27 24 22 21 24 27 29 31 33 34 36 38 36 34 35 36 35 34 34 36 38 37 36 34 35
23 21 21 21 21 24 30 31 29 27 25 27 29 31 33 34 37 39 38 39 33 34 34 35 33 33 36 37 36 34 33 31
21 20 21 21 21 21 27 33 34 32 30 31 33 34 35 37 40 41 42 36 35 33 34 34 34 33 35 35 34 30 31 30
25 24 24 24 25 23 22 29 35 37 35 35 36 38 37 39 42 41 42 36 35 33 33 34 36 35 34 33 31 32 28 27
25 28 29 28 29 30 32 34 35 36 37 38 39 38 39 42 42 45 37 37 39 35 34 31 35 34 31 30 31 27 25 25
24 27 30 33 34 35 37 40 42 38 37 38 35 38 42 44 42 39 35 37 40 30 30 32 34 36 35 31 30 27 26 28
22 28 30 31 34 36 39 40 41 40 39 37 35 38 41 42 41 37 39 38 29 27 30 30 34 35 34 28 29 29 28 29
18 22 25 29 33 37 40 40 41 40 39 36 37 40 43 46 45 45 37 32 23 25 27 31 34 35 35 28 28 28 27 29
17 21 27 32 35 36 36 37 38 38 37 39 42 44 46 50 50 45 35 20 24 24 29 32 34 36 33 29 27 28 28 29
18 18 19 24 29 28 30 33 36 37 39 44 48 48 51 54 49 36 26 22 23 27 31 34 35 33 29 28 28 29 29 30

GFSFLT1_700_spd_024.txt.gz
Wind_Speed
2 5 11 11 10 11 8 7 7 6 8 7 8 11 12 12 13 13 14 12 13 16 18 21 23 23 26 27 30 32 31 30
8 7 8 8 9 11 8 9 9 11 10 10 11 12 14 14 14 14 15 16 17 17 16 21 25 32 33 30 32 32 30 31
17 13 10 9 8 10 11 11 11 12 14 16 15 14 15 17 15 13 14 18 18 20 21 24 28 28 29 36 33 32 32 32
17 15 13 15 15 14 13 12 15 17 19 20 19 16 16 14 13 12 12 13 15 20 22 28 31 32 30 30 32 33 33 35
18 18 18 16 16 17 18 18 20 24 22 22 17 16 15 12 12 13 15 18 20 23 28 32 34 33 34 33 35 35 35 35
22 20 20 20 19 19 22 24 25 29 25 20 17 16 15 14 14 16 19 22 24 26 32 36 34 35 36 36 37 38 37 36
23 22 23 24 23 20 26 31 30 29 20 18 18 18 17 17 20 23 25 27 28 29 32 35 36 36 35 36 38 39 38 39
21 26 28 29 25 23 28 23 21 19 18 19 20 20 21 23 26 28 32 34 32 34 36 35 38 39 38 39 39 40 40 39
25 26 27 28 24 29 32 28 21 20 21 23 24 25 27 29 30 33 34 34 37 38 46 39 40 39 42 41 40 40 40 39
27 27 25 25 25 29 28 26 23 22 23 25 28 30 31 32 34 35 39 39 41 42 43 43 37 39 40 40 40 37 35 34
19 20 22 22 20 22 22 22 23 24 26 29 32 34 35 36 37 40 39 41 42 49 45 43 38 41 38 42 38 36 34 33
15 15 14 12 13 15 15 15 16 20 24 29 34 37 37 39 41 41 44 44 49 40 51 42 42 41 39 32 33 31 31 31
14 17 16 14 15 17 17 17 17 18 21 25 27 30 35 38 40 42 43 46 50 44 45 42 41 35 29 29 29 31 33 32
20 22 22 22 22 22 24 25 25 27 28 30 31 31 31 34 37 40 42 45 47 50 46 44 39 31 27 30 32 32 32 30
20 22 23 24 25 25 27 29 29 28 30 33 33 34 34 36 37 41 44 47 50 50 47 41 37 30 32 29 29 29 30 30
19 22 25 27 29 31 32 33 30 30 31 33 33 35 37 39 43 46 48 49 52 51 43 39 34 26 28 30 30 28 29 31
14 18 21 28 30 30 31 29 28 30 33 33 34 37 39 44 48 53 55 57 54 40 39 34 24 25 31 32 31 30 30 31
17 17 20 21 20 22 25 27 30 31 32 34 38 42 44 47 50 54 57 56 41 38 36 22 24 29 33 33 31 30 30 32
18 19 20 21 21 24 27 26 28 31 36 40 43 44 47 52 57 58 55 39 39 32 20 22 28 33 33 31 30 30 30 31

GFSFLT1_700_spd_027.txt.gz
Wind_Speed
10 10 13 12 9 10 9 7 6 5 3 4 5 4 6 8 10 12 11 13 13 14 15 19 21 25 28 31 35 41 37 37
7 9 9 9 8 9 8 7 6 6 5 5 6 9 9 10 14 14 13 13 14 15 17 21 25 29 33 35 34 33 36 38
5 5 8 9 7 6 9 10 10 9 9 10 12 13 13 14 14 14 14 12 13 16 19 23 26 29 32 31 30 32 34 35
3 4 5 8 9 9 10 11 13 13 14 16 17 16 14 13 12 11 12 13 16 18 21 25 28 30 31 30 32 34 34 35
13 11 10 6 5 11 14 16 15 15 19 20 19 18 17 12 13 15 15 17 20 22 25 29 32 35 32 33 35 35 37 37
16 14 12 12 12 13 15 16 17 18 22 23 21 20 17 16 17 18 19 22 25 28 32 35 37 37 38 36 40 38 39 41
24 20 20 18 17 20 18 17 18 21 27 27 25 20 18 19 20 22 25 29 31 34 37 41 40 39 35 40 42 38 41 43
27 25 23 21 23 23 21 19 20 24 26 20 21 20 23 25 26 29 31 34 36 40 44 42 40 42 44 43 43 40 43 42
27 25 24 25 27 26 22 23 24 27 22 22 23 24 27 30 32 33 35 37 41 43 44 44 42 53 41 45 42 43 44 44
21 18 20 22 25 24 23 26 28 25 22 24 25 27 29 30 33 36 40 43 46 49 45 45 48 49 46 47 45 46 45 40
18 16 12 10 18 20 23 21 18 17 19 20 22 22 26 31 36 38 42 43 46 45 44 47 49 52 48 44 45 46 43 40
13 14 11 9 11 8 9 10 10 11 12 13 15 18 22 26 30 35 39 41 43 43 45 48 49 50 46 43 41 39 38 38
9 9 10 12 12 13 14 16 15 15 17 19 19 23 26 26 26 29 33 38 40 43 45 47 49 48 43 42 38 36 38 34
8 10 14 17 19 20 19 19 21 22 23 23 23 26 29 28 30 32 34 35 39 42 47 49 50 44 41 39 34 31 30 32
14 16 18 20 25 26 28 27 27 27 28 27 26 28 28 31 32 35 36 40 42 45 48 51 40 39 41 33 27 28 31 33
16 18 19 22 26 28 29 30 30 30 30 28 28 29 31 32 35 40 43 46 49 52 53 48 38 41 36 25 29 32 34 35
17 17 19 21 24 29 31 32 30 26 28 29 28 30 32 35 39 44 49 50 53 53 52 37 41 39 24 28 32 35 35 33
20 19 21 21 19 18 17 21 24 25 28 28 29 32 34 41 46 50 51 55 57 55 39 41 42 24 26 31 36 34 34 32
17 19 20 20 21 23 25 25 23 24 28 32 33 36 41 46 50 54 59 57 53 41 43 44 29 25 30 32 33 33 33 32

GFSFLT1_700_spd_033.txt.gz
Wind_Speed
18 19 20 19 18 18 19 20 20 20 19 17 16 15 13 11 9 7 6 7 8 9 10 10 12 15 16 18 21 24 26 28
18 19 19 19 18 18 17 16 14 13 12 12 11 11 11 10 9 10 10 9 9 10 12 13 14 16 19 22 26 29 29 29
16 18 17 16 16 16 16 16 14 13 10 10 10 11 11 11 12 12 13 12 12 13 14 16 17 19 22 26 30 34 37 39
14 13 13 14 13 12 13 14 14 12 12 12 11 12 12 13 12 12 14 17 16 15 16 19 22 24 27 31 33 40 41 41
14 15 14 11 12 14 14 13 14 15 14 14 13 12 14 15 19 19 18 19 19 18 20 23 26 28 33 35 39 46 38 36
17 15 15 14 15 13 14 15 17 19 20 18 16 16 16 18 23 22 20 22 23 21 24 27 28 33 37 41 37 40 47 36
18 18 18 19 20 20 19 17 19 21 21 19 19 19 17 19 22 25 25 24 25 27 28 28 31 35 39 36 40 38 45 36
23 23 22 22 21 22 22 22 27 17 22 21 19 20 22 23 25 27 27 25 27 29 28 30 34 33 36 36 40 41 40 39
22 21 22 23 20 22 22 22 28 17 13 17 17 20 23 26 25 23 22 23 24 26 27 28 31 34 36 37 36 41 37 37
18 18 16 18 19 18 16 17 25 24 15 17 19 20 22 23 19 20 20 19 20 23 27 31 30 32 36 41 41 38 38 36
10 13 14 15 17 15 18 16 17 18 20 18 15 15 15 15 15 16 17 21 22 24 28 28 32 32 38 39 42 39 42 35
9 13 14 17 17 19 19 18 15 13 11 12 14 14 16 16 18 21 22 22 24 26 29 31 35 35 38 44 41 41 38 34
4 9 11 9 7 10 13 14 12 11 13 15 18 20 22 23 22 21 20 25 26 27 29 34 36 40 41 46 46 41 32 35
3 4 4 7 9 10 9 13 17 17 20 23 24 25 24 24 24 22 26 31 31 33 30 37 36 44 47 56 49 32 38 37
11 10 9 11 11 12 17 20 22 22 23 26 28 27 26 25 27 29 29 29 30 31 39 40 45 46 51 53 37 38 37 35
16 15 17 17 18 19 22 22 21 24 28 31 32 32 31 32 31 28 28 29 31 36 40 48 49 49 54 39 38 37 38 32
18 21 21 21 22 22 24 25 25 28 30 32 34 34 34 33 30 30 33 37 36 42 49 49 53 53 37 36 34 39 34 32
22 23 22 21 21 22 22 25 28 30 32 33 32 32 32 33 32 33 37 40 42 50 63 61 43 39 37 36 38 35 34 32
19 18 19 18 19 22 25 27 29 29 28 26 26 27 29 31 33 33 34 41 43 43 35 34 37 37 36 35 33 34 33 34

GFSFLT1_700_spd_036.txt.gz
Wind_Speed
14 16 16 15 15 15 16 17 19 20 21 22 22 22 21 18 17 14 12 10 10 10 9 9 11 12 14 16 18 20 23 27
16 17 17 18 17 17 17 17 18 17 17 18 18 18 16 16 16 14 13 12 10 10 9 11 13 15 17 18 20 23 26 29
18 18 18 17 17 18 18 18 17 16 15 15 15 16 17 16 17 16 15 14 15 14 16 15 17 17 20 22 24 27 31 32
20 19 17 17 18 18 17 18 17 18 18 18 18 19 18 17 17 17 16 17 19 20 20 20 19 21 23 25 26 29 34 39
19 19 19 18 18 19 18 19 20 20 21 21 19 18 18 18 18 19 20 22 21 22 24 23 22 26 25 25 28 32 35 36
18 18 19 20 20 18 19 20 20 22 23 22 20 20 20 21 20 23 26 27 24 23 24 26 26 27 25 26 30 34 36 35
24 22 21 21 21 21 21 22 24 26 27 24 26 25 24 22 20 23 24 28 28 27 25 26 27 27 28 30 33 35 37 34
27 27 25 25 24 24 24 26 27 28 26 28 22 23 27 25 26 26 28 26 27 27 25 26 25 27 29 29 35 32 35 39
33 30 29 29 29 28 26 26 32 30 26 14 17 22 26 26 26 28 27 26 26 24 24 24 25 27 28 34 35 35 38 39
26 32 36 34 32 28 26 26 28 29 33 23 14 21 23 24 24 26 25 26 22 23 24 23 28 27 32 33 38 36 39 41
16 21 27 30 27 27 27 25 23 21 26 18 18 19 19 19 21 21 23 22 23 25 29 26 30 28 32 35 39 40 41 38
9 13 18 21 24 25 23 23 23 24 23 19 17 16 17 17 18 21 23 27 28 30 29 29 32 32 29 38 39 42 49 46
6 10 14 17 19 21 22 26 26 22 21 19 18 19 18 21 22 25 26 26 27 29 29 33 32 32 36 34 40 46 44 45
9 9 10 11 11 11 13 17 18 19 20 19 21 25 24 25 25 26 28 27 26 28 31 33 35 37 42 49 44 48 47 33
13 14 14 12 13 14 16 16 18 21 21 24 25 26 27 28 29 29 29 30 32 31 34 39 36 41 44 46 54 39 36 38
15 19 19 18 19 20 21 22 23 23 24 25 28 30 32 33 33 33 32 33 34 32 39 34 40 48 47 51 41 36 36 36
18 18 22 22 23 23 24 24 25 25 27 28 28 29 30 32 33 33 35 33 34 36 36 46 43 46 36 31 34 35 36 35
19 22 24 25 24 22 22 22 21 22 25 28 30 32 34 33 33 33 35 32 31 34 37 36 37 30 29 30 33 35 35 33
21 22 21 20 19 20 20 22 24 27 29 30 30 29 29 31 33 34 34 33 30 33 36 39 37 29 29 31 32 34 35 34